Vertical_Velocity
-3 -2 -0 -3 -2 -2 0 -1 -2 0 0 -1 -2 0 4 4 10 54 -11 5 0 -2 -7 -9 -4 -3 0 1 -3 1 -5 -3 -2 -1 -1 -3 1 -2 -2 -3 -4 -5 -4 -1 1 -0 -13 -1 -1 -8 -10 -1 0 -0
-2 -2 2 -1 0 -2 -3 -2 -3 -4 -1 2 0 1 0 -2 -5 -1 46 23 21 6 1 -2 -6 -8 -1 -7 0 2 0 -2 -5 -3 -0 -0 -0 -0 -1 -3 -1 -7 -10 -9 -9 -15 -3 -2 -1 0 1 0 -1 -1
-2 0 -2 0 0 -1 -1 1 2 -0 0 -0 -1 -2 -3 -4 1 6 2 6 7 19 4 7 -12 -1 3 -1 5 -12 0 0 -1 1 -3 -1 -1 -3 -1 -5 -0 -2 -0 -1 -4 -8 -3 -1 3 -0 -2 -1 0 -0
-2 -1 -3 -3 -1 -2 -3 -2 -1 -2 -1 -1 1 -3 1 2 -3 3 7 10 18 4 5 -5 -2 13 4 9 8 8 9 3 2 3 -2 -1 -1 -0 -2 -2 -1 -5 -1 -3 -5 -3 -2 -5 -4 4 -1 -1 1 -1
1 2 0 0 -2 -0 0 -0 -4 -2 -2 -4 -3 -4 -0 -1 1 5 1 -6 1 -9 3 -1 4 -10 -5 8 4 3 9 0 -0 -0 1 -2 -0 -1 0 -2 -0 -5 -11 -3 -11 -8 -3 -10 -0 -2 -1 1 2 -1
-0 -1 1 0 -0 -2 -4 -1 1 4 5 3 -0 -4 3 -1 8 -1 -3 -2 21 18 8 1 3 3 3 -1 6 7 3 5 -3 -5 -2 -0 -1 -1 1 -1 -10 -2 -3 3 -11 2 2 0 -1 -2 -1 0 -3 -0
-0 -1 0 -1 -2 -2 -2 -1 2 -3 -2 4 1 -1 -1 -1 5 -2 -7 1 -5 10 7 1 1 1 7 2 3 2 4 -0 -1 -3 1 -0 -1 -3 1 -1 -1 -1 4 7 2 6 1 -2 -5 0 -1 1 0 -1
-1 -1 -2 -2 -0 -1 0 -1 -0 1 -4 2 6 -2 -1 1 1 -3 2 9 3 -4 -1 1 -0 -1 -2 -1 -1 -0 2 1 2 -1 3 -1 1 1 -0 -4 -4 1 -1 -1 3 4 3 3 0 1 -1 -2 -2 -1
1 2 -1 -0 -2 -2 1 1 -0 2 -1 0 1 -1 1 2 -1 -5 -3 6 3 2 -0 -1 -3 -3 4 2 -1 1 -0 -0 1 0 -0 -0 -0 -3 -4 1 1 1 2 0 -0 -0 0 0 1 1 1 1 -1 1
2 0 -0 2 3 2 3 -1 -2 4 14 -0 4 -1 1 -2 -5 -5 1 -2 0 5 4 -1 1 -2 -2 1 1 -0 1 -1 0 -3 1 2 -4 3 2 2 1 1 2 2 2 0 0 2 0 -2 -2 -1 -1 -0
-0 -1 -2 -1 -1 1 -0 -0 1 15 6 2 -4 -0 0 -1 -2 -0 -1 -1 -1 -3 1 1 -0 -2 -2 -1 -1 -1 -1 -0 1 -3 0 -1 -2 -2 -1 -0 1 0 3 0 1 3 1 0 0 0 -0 -0 0 1
-1 -4 0 -1 -2 1 1 1 2 30 3 -2 -1 -2 -0 -0 0 -5 -1 -3 -1 -2 -0 -1 1 0 -1 3 -1 3 -1 0 -1 -1 -3 -1 -5 -1 0 -0 -0 0 0 1 2 -1 2 3 -0 1 0 -0 -0 0
-3 -0 -0 -1 -2 1 -1 6 0 13 9 4 -4 -1 -1 -0 -5 -2 -1 -4 -1 -0 -0 0 0 -0 1 1 -0 -0 1 0 -1 -1 -3 -3 -0 1 1 1 1 1 1 1 1 1 -0 2 3 2 2 1 1 0
-0 -1 0 1 1 2 0 6 -6 11 1 -4 -3 -3 -6 -1 -2 -2 -2 -2 -2 -0 -0 -1 -0 0 -0 -1 0 -1 2 -2 -1 -1 -4 -1 2 0 2 1 2 2 1 -1 3 2 -1 -1 1 2 3 4 2 2
-4 1 -1 1 0 -3 3 2 4 22 -6 -4 -0 -4 -1 -4 -0 0 2 0 -1 -1 -2 -0 -0 -1 0 -1 -0 -1 -1 -1 -3 -3 1 1 -0 -1 0 0 1 3 0 1 2 1 1 1 0 -0 -0 -0 0 1
-2 -4 -10 -7 -5 -1 -2 -3 15 3 -2 -1 1 -2 1 -1 -1 -0 -0 -0 -0 0 0 0 -1 -2 -1 -1 -1 -1 -0 -1 1 1 2 2 1 1 1 1 1 1 -1 -2 -2 2 2 1 -1 1 2 2 0 1
-1 -6 0 -7 8 28 17 12 1 0 -1 0 -1 0 0 0 -0 0 0 1 1 0 -1 -1 -2 -6 -3 -1 0 0 1 2 2 1 1 2 1 0 1 1 -0 1 0 1 -1 -1 1 2 0 1 -1 -1 0 -0
0 -5 -4 0 4 5 -2 0 0 -1 -0 0 1 0 1 1 1 1 1 2 1 -0 0 -2 -2 -1 -0 -0 1 2 1 2 1 0 0 0 0 0 -0 1 1 2 2 1 2 -0 2 1 1 -2 -0 1 2 1
-0 -1 -4 -2 4 4 3 1 -0 -2 -1 0 2 1 1 1 2 2 2 3 2 2 -0 -2 -3 0 1 1 1 1 0 1 3 1 1 1 1 1 1 0 2 1 2 -0 1 0 -1 -1 -1 2 -0 -1 -2 -1
1 0 -3 -2 3 4 -1 -1 1 2 -0 1 2 -0 -0 1 2 2 2 1 -1 -2 -6 -2 1 2 2 1 1 2 2 2 2 1 0 0 0 1 -0 0 -0 -0 0 -0 -0 1 0 0 1 1 0 -1 3 1
-1 1 -0 -1 1 0 2 1 0 0 1 -2 2 1 0 0 -2 -2 -2 0 -7 -0 -0 1 1 1 -1 -1 -0 1 2 3 0 2 2 1 1 1 2 2 2 1 1 2 0 1 0 -1 -1 0 0 0 1 1
-3 -1 -1 0 3 2 -1 0 1 1 -2 2 -1 0 -1 -1 -0 -0 2 -9 -0 2 1 1 2 2 3 2 1 1 1 2 2 1 1 1 -0 0 -0 -0 -0 -0 0 1 1 1 0 1 -1 0 1 1 2 3
-0 2 1 -2 1 -1 1 0 -2 -1 -1 1 -1 -2 -1 -1 1 3 -4 1 1 3 1 0 -0 1 -1 -0 1 1 1 1 -0 0 0 -0 -1 -1 -1 -0 0 1 -0 -0 0 0 0 -1 -0 -1 1 -0 -0 0
1 -2 -4 -3 -1 -0 1 -2 -1 -1 -1 -1 -1 0 -0 1 1 -4 1 1 5 4 1 1 1 0 1 2 -1 -1 -1 -1 -0 0 0 0 0 -0 -0 -0 -0 -0 -0 -0 -0 -0 -0 0 -0 -0 -1 -1 0 -0
-4 -6 -2 -3 -0 -4 -2 -1 -1 -2 0 1 -1 0 1 -0 -2 -1 1 2 1 1 1 1 0 -0 -1 -0 0 -0 -0 -1 -1 -1 -1 -1 0 1 0 0 0 -0 -0 0 1 1 1 -0 -0 -1 -1 -1 -1 1
-6 -0 -3 2 -1 -2 1 -0 0 1 0 -1 1 2 -1 -2 -3 1 1 1 1 1 1 1 -0 0 0 0 -0 -0 -1 0 1 0 0 0 0 1 0 -0 -0 1 -1 -1 -2 -3 -2 -2 -2 -2 -1 3 3 1
-3 -3 1 1 1 1 -1 -1 -0 -2 -1 0 1 -1 -2 -2 1 2 1 0 0 0 0 0 -0 -1 -0 0 1 1 -0 -1 -1 -1 -1 -0 -0 -0 -0 -1 -1 -0 0 0 1 1 -1 -0 -1 0 0 1 1 0
1 -1 -2 -0 -2 0 -0 -0 -0 1 1 -0 1 -1 -0 1 2 1 0 1 1 1 1 -0 0 0 -0 0 -1 -2 0 0 0 -0 0 -0 -1 1 1 1 1 -1 2 3 0 -2 0 -2 -3 -1 1 -3 -4 -1
-2 -1 1 -1 -0 -2 0 -1 -0 1 1 1 -0 0 0 0 1 0 1 1 1 0 -0 -0 -1 0 0 -0 1 2 -1 -1 -1 -1 -0 -1 -1 5 2 1 0 0 1 -2 -0 2 1 1 3 19 16 -1 -4 -4
0 0 -1 0 -2 -1 0 1 -1 -0 -0 -0 -0 0 1 1 1 1 0 0 1 0 -0 -1 -1 -1 -1 -3 -6 -0 2 -0 -0 -0 -1 -2 -2 -2 -2 -3 -2 -1 1 -0 -3 -5 1 -2 -4 -4 -4 -4 -1 0
-0 -0 -1 -0 -0 -2 -0 1 1 1 1 3 0 -2 -1 -1 -2 -0 -1 0 1 -1 -1 1 1 -1 -1 -1 -3 -5 -3 1 -0 0 -1 -2 -2 -2 -3 -5 -2 1 -0 -3 -2 -1 -1 -1 -1 -3 -3 -3 -0 4
0 -1 -1 -1 -0 0 0 0 1 -0 -1 0 -1 -0 -0 -1 -1 -1 -0 2 2 1 2 -1 -3 -1 -1 -0 0 0 -2 -1 -0 -0 1 -2 -1 -6 -6 4 1 1 1 2 1 1 2 0 -1 1 -0 -1 -0 0
-0 -0 0 -0 -0 0 -0 -0 0 -0 0 -0 -0 -0 0 0 -1 0 -0 -1 -2 -0 -2 -2 -1 -0 0 -0 -0 -0 -1 -1 -0 0 3 2 4 8 0 1 11 5 0 -2 -1 1 -0 1 -0 -0 -1 -1 -1 -2
Height
1460 1458 1455 1453 1451 1448 1446 1444 1442 1441 1440 1440 1439 1438 1437 1435 1435 1428 1426 1425 1425 1423 1421 1423 1425 1427 1429 1432 1437 1441 1445 1446 1450 1453 1450 1445 1445 1439 1444 1445 1443 1440 1445 1448 1447 1451 1440 1409 1412 1416 1410 1406 1406 1405
1456 1454 1451 1449 1446 1444 1442 1439 1437 1435 1433 1431 1430 1429 1429 1428 1427 1427 1417 1413 1411 1414 1413 1412 1414 1416 1419 1421 1427 1430 1429 1428 1432 1442 1443 1439 1438 1446 1441 1435 1438 1440 1427 1431 1428 1420 1406 1407 1405 1406 1407 1406 1406 1406
1452 1449 1447 1445 1442 1440 1438 1436 1433 1431 1428 1426 1425 1423 1421 1419 1418 1420 1416 1412 1412 1408 1405 1406 1403 1406 1408 1412 1416 1422 1422 1423 1424 1425 1429 1434 1434 1431 1434 1434 1430 1424 1421 1425 1422 1404 1402 1402 1403 1404 1404 1403 1404 1404
1449 1446 1444 1442 1439 1437 1435 1432 1430 1427 1425 1423 1422 1420 1418 1416 1413 1413 1410 1410 1409 1410 1406 1398 1399 1400 1400 1405 1408 1411 1413 1415 1420 1423 1425 1429 1432 1422 1426 1420 1420 1413 1417 1414 1414 1402 1399 1398 1398 1398 1398 1399 1399 1400
1446 1443 1440 1438 1435 1433 1431 1428 1426 1423 1421 1419 1417 1416 1414 1411 1410 1407 1403 1400 1403 1410 1400 1396 1393 1394 1396 1399 1401 1405 1408 1412 1417 1421 1423 1424 1420 1422 1425 1425 1418 1402 1396 1401 1393 1390 1392 1393 1394 1395 1396 1396 1396 1396
1442 1439 1435 1431 1428 1425 1423 1421 1419 1418 1416 1414 1412 1410 1409 1407 1405 1402 1396 1394 1394 1397 1398 1396 1395 1391 1391 1396 1398 1398 1403 1407 1411 1414 1417 1415 1415 1418 1417 1417 1378 1381 1384 1384 1383 1385 1386 1388 1389 1391 1391 1391 1391 1392
1438 1434 1430 1427 1423 1420 1418 1415 1413 1410 1409 1408 1406 1405 1404 1402 1401 1401 1400 1396 1393 1396 1394 1391 1391 1392 1392 1395 1398 1398 1401 1403 1406 1409 1411 1411 1413 1414 1413 1410 1375 1376 1379 1380 1380 1382 1382 1383 1385 1385 1386 1386 1386 1387
1431 1428 1425 1422 1418 1415 1412 1409 1407 1405 1403 1403 1401 1400 1399 1396 1395 1393 1391 1390 1390 1394 1393 1389 1394 1394 1394 1396 1398 1399 1400 1402 1404 1405 1407 1408 1411 1411 1405 1380 1377 1378 1378 1377 1377 1377 1378 1379 1381 1381 1382 1382 1382 1381
1428 1423 1420 1416 1412 1409 1406 1403 1401 1399 1398 1398 1396 1396 1394 1391 1390 1389 1387 1385 1386 1391 1386 1385 1390 1391 1392 1391 1397 1400 1398 1402 1403 1403 1404 1406 1407 1402 1383 1381 1380 1380 1378 1376 1375 1374 1376 1377 1378 1378 1378 1378 1377 1378
1421 1417 1412 1408 1403 1399 1395 1393 1393 1393 1393 1392 1392 1393 1390 1389 1388 1388 1387 1387 1386 1384 1383 1383 1385 1389 1391 1393 1396 1398 1396 1398 1401 1400 1401 1400 1393 1386 1384 1383 1381 1378 1377 1376 1376 1375 1375 1376 1376 1376 1374 1373 1373 1374
1415 1411 1405 1400 1395 1390 1386 1385 1385 1387 1385 1387 1388 1388 1387 1387 1389 1388 1387 1387 1386 1386 1383 1385 1386 1388 1391 1392 1391 1392 1393 1395 1398 1398 1399 1397 1392 1387 1385 1383 1380 1377 1375 1375 1375 1375 1374 1374 1374 1373 1372 1370 1370 1372
1408 1403 1398 1392 1387 1382 1378 1377 1379 1381 1378 1382 1385 1386 1386 1388 1388 1390 1391 1388 1388 1387 1385 1385 1386 1387 1388 1389 1389 1392 1392 1394 1394 1397 1404 1403 1393 1389 1386 1383 1380 1378 1376 1375 1373 1373 1374 1373 1374 1373 1372 1371 1371 1372
1402 1396 1390 1385 1381 1377 1372 1370 1372 1373 1374 1379 1383 1385 1385 1389 1393 1392 1393 1393 1390 1384 1385 1386 1387 1387 1388 1388 1390 1390 1391 1392 1394 1400 1399 1396 1393 1389 1387 1384 1383 1380 1377 1376 1374 1373 1373 1375 1374 1374 1373 1371 1371 1372
1397 1390 1384 1380 1377 1373 1370 1367 1368 1370 1373 1377 1379 1388 1386 1390 1389 1386 1385 1384 1382 1382 1383 1385 1386 1387 1388 1388 1389 1389 1394 1395 1402 1411 1402 1398 1394 1391 1389 1387 1386 1383 1380 1379 1377 1375 1374 1376 1376 1375 1374 1373 1372 1373
1392 1386 1380 1376 1371 1368 1368 1366 1368 1367 1371 1375 1377 1381 1384 1377 1378 1378 1379 1380 1381 1381 1383 1385 1386 1387 1388 1389 1391 1394 1395 1395 1398 1397 1398 1397 1395 1394 1392 1390 1389 1386 1384 1383 1382 1381 1380 1379 1379 1379 1378 1376 1376 1376
1390 1385 1379 1372 1365 1364 1365 1365 1366 1367 1369 1372 1373 1376 1375 1376 1376 1377 1378 1379 1380 1381 1383 1385 1388 1391 1389 1388 1393 1388 1391 1392 1396 1399 1399 1397 1396 1395 1394 1393 1392 1389 1388 1387 1387 1386 1385 1383 1382 1382 1382 1381 1380 1380
1388 1385 1382 1378 1371 1369 1367 1367 1368 1368 1369 1370 1371 1370 1371 1372 1373 1374 1376 1377 1380 1382 1385 1386 1389 1387 1389 1394 1393 1392 1393 1399 1400 1400 1399 1398 1398 1397 1397 1395 1394 1393 1392 1390 1390 1389 1388 1386 1386 1385 1384 1384 1384 1383
1386 1384 1381 1380 1377 1374 1371 1369 1368 1368 1369 1370 1370 1370 1371 1371 1373 1375 1376 1378 1380 1381 1382 1385 1383 1389 1391 1391 1394 1401 1402 1402 1401 1401 1400 1400 1399 1399 1398 1397 1396 1395 1394 1393 1393 1392 1391 1390 1388 1387 1388 1387 1386 1385
1384 1381 1378 1377 1376 1375 1372 1370 1369 1368 1368 1369 1369 1370 1371 1372 1374 1375 1376 1377 1379 1380 1381 1384 1390 1403 1401 1404 1404 1404 1404 1403 1403 1402 1401 1401 1400 1400 1399 1398 1398 1397 1396 1396 1395 1394 1393 1392 1392 1391 1390 1389 1388 1388
1381 1378 1376 1374 1373 1371 1369 1368 1368 1366 1367 1368 1369 1370 1372 1374 1376 1377 1377 1378 1379 1382 1389 1399 1405 1407 1407 1407 1407 1406 1405 1404 1404 1403 1403 1402 1402 1401 1400 1400 1399 1399 1399 1398 1397 1396 1395 1395 1394 1393 1392 1391 1391 1390
1376 1375 1373 1372 1370 1369 1367 1366 1366 1367 1368 1369 1371 1372 1375 1377 1379 1380 1381 1382 1385 1399 1406 1408 1409 1408 1408 1408 1408 1407 1406 1405 1404 1404 1404 1404 1403 1403 1402 1401 1400 1400 1400 1398 1397 1397 1396 1395 1395 1394 1393 1393 1392 1391
1375 1373 1370 1368 1367 1366 1367 1368 1369 1369 1371 1372 1373 1375 1379 1382 1385 1388 1389 1391 1405 1411 1410 1411 1410 1410 1410 1410 1409 1409 1408 1408 1407 1406 1404 1404 1404 1403 1402 1401 1401 1400 1399 1398 1397 1396 1396 1395 1394 1394 1393 1392 1391 1390
1373 1371 1369 1368 1368 1368 1372 1370 1371 1372 1373 1376 1378 1381 1386 1389 1392 1393 1399 1407 1412 1414 1413 1413 1413 1413 1413 1413 1413 1412 1411 1410 1408 1407 1406 1405 1404 1403 1402 1401 1400 1400 1399 1398 1397 1396 1395 1394 1393 1392 1391 1389 1388 1387
1371 1370 1370 1372 1374 1375 1374 1375 1375 1376 1377 1379 1382 1387 1391 1394 1396 1400 1408 1414 1417 1416 1416 1416 1416 1416 1416 1416 1415 1414 1413 1411 1410 1408 1407 1405 1404 1402 1401 1400 1399 1398 1397 1396 1395 1394 1393 1391 1390 1389 1387 1386 1385 1383
1375 1383 1383 1384 1383 1381 1381 1382 1382 1381 1384 1385 1388 1392 1395 1396 1401 1409 1414 1419 1418 1418 1418 1418 1418 1418 1418 1418 1417 1415 1413 1412 1410 1408 1406 1404 1403 1402 1400 1399 1398 1397 1396 1395 1394 1392 1391 1389 1387 1386 1384 1383 1381 1380
1388 1396 1395 1395 1393 1391 1392 1391 1392 1393 1391 1392 1396 1397 1397 1401 1408 1416 1418 1419 1419 1419 1419 1419 1420 1420 1419 1418 1416 1414 1413 1411 1408 1406 1404 1402 1401 1399 1398 1397 1396 1396 1394 1393 1391 1389 1388 1386 1385 1383 1382 1380 1378 1375
1400 1402 1401 1401 1400 1399 1400 1400 1400 1400 1402 1404 1404 1401 1401 1408 1417 1420 1420 1420 1421 1421 1421 1421 1421 1420 1419 1417 1415 1414 1411 1408 1406 1404 1402 1400 1399 1397 1396 1395 1394 1394 1392 1390 1389 1387 1384 1382 1381 1379 1377 1375 1373 1371
1405 1406 1407 1407 1405 1405 1406 1407 1409 1412 1411 1411 1409 1410 1411 1413 1418 1420 1420 1422 1423 1423 1423 1422 1421 1419 1417 1415 1413 1411 1409 1406 1403 1401 1399 1397 1396 1395 1394 1393 1391 1390 1389 1387 1384 1382 1380 1378 1376 1374 1372 1369 1368 1367
1408 1408 1408 1409 1409 1411 1414 1416 1416 1415 1415 1414 1414 1415 1416 1417 1418 1420 1422 1423 1424 1425 1423 1421 1419 1417 1415 1414 1412 1409 1405 1402 1400 1398 1396 1395 1394 1394 1392 1390 1388 1387 1385 1382 1380 1379 1376 1374 1372 1371 1367 1365 1363 1360
1410 1409 1410 1412 1415 1419 1418 1417 1416 1416 1415 1415 1416 1417 1418 1420 1421 1422 1424 1424 1424 1423 1422 1420 1417 1415 1413 1411 1408 1406 1403 1399 1397 1396 1393 1392 1390 1389 1387 1385 1383 1381 1379 1376 1373 1371 1369 1367 1365 1363 1361 1358 1355 1352
1410 1411 1411 1414 1417 1420 1419 1418 1418 1418 1417 1418 1418 1418 1419 1422 1423 1424 1424 1424 1424 1422 1420 1418 1416 1413 1411 1408 1404 1400 1399 1398 1395 1394 1391 1389 1387 1385 1382 1380 1377 1374 1371 1368 1365 1363 1361 1359 1357 1354 1350 1346 1344 1342
1411 1412 1412 1417 1418 1419 1419 1419 1419 1420 1421 1421 1421 1421 1423 1423 1424 1425 1424 1424 1423 1422 1420 1416 1413 1411 1409 1405 1402 1399 1397 1395 1393 1391 1389 1386 1383 1380 1376 1372 1368 1365 1362 1359 1358 1356 1353 1350 1347 1343 1340 1337 1335 1332
1413 1414 1414 1415 1417 1418 1419 1419 1420 1420 1420 1421 1421 1422 1423 1423 1423 1423 1423 1423 1423 1420 1416 1413 1410 1408 1405 1401 1399 1397 1395 1393 1390 1387 1384 1382 1379 1376 1373 1369 1364 1360 1356 1353 1350 1347 1344 1341 1338 1335 1332 1329 1326 1322